Showing default

SKYNET 4B, 19687

Orbit data source: Space-Track

SKYNET 4B, 19687 is a payload satellite owned by UK MoD (UK) in GEO that was launched on Sun, 11 Dec 1988 UTC via an ARIANE 44LP launch vehicle from the French Guiana (FRGUI). Payload-class satellites include a variety of spacecraft equipped with specific instruments for various scientific and technological missions. These include communications satellites like Starlink; space stations such as the ISS; scientific satellites like the Hubble; Earth observation satellites from companies like Planet Labs, Umbra, and HawkEye 360; GPS; miniature CubeSats for education and research; and military/defense satellites.

Loading next visibility...
Identifier
19687, 1988-109A
Orbit
GEO
Last TLE update
12 hours ago
Origin
Manufacturer
BAe
Mission
Non-operational Defense Communications
Bus & Motor
ECS, TE-M-700-19
Mass
1,433 kg wet, 655 kg dry
Launch date (UTC)
1988-12-11 (37 years ago)
Launch vehicle
ARIANE 44LP
Launch site
French Guiana (FRGUI)
Object type
Payload
Rocket body
Debris
Shape & HBR
Hex Poly + 2 Pan, 16 m
Radar Cross Section
11.617 m², Large (>1 m²)

Expand to show TLE details & history

TLE from 12 hours ago
0 SKYNET 4B
1 19687U 88109A   25186.53500426  .00000086  00000-0  00000-0 0  9998
2 19687  13.4293 339.3840 0002934 258.5821  87.9248  0.99671794114707
Epoch: 2025-07-05T12:50Z
TLE epoch observation values (Epoch: 2025-07-05T12:50:24.368Z)
Latitude
-3.10764°
Longitude
-150.10062°
Altitude
35,955.147 km
Speed
3.069 km/s
True Right ascension
21h 45m 05s
True Declination
-3° 06' 16"
Sunlit
Object was in daylight at epoch
Visualization orbit readout
Latitude
2.74319°
Longitude
31.46041°
Altitude
35,954.972 km
Speed
3.069 km/s
Apparent Right ascension
09h 30m 33s
Apparent Declination
-3° 00' 01"
Sunlit
Object is in daylight
Visualization observer readout
Local Sidereal Time
12:56:02
Azimuth
240.565° WSW
Elevation
26.397°
Doppler factor
1
Orbital elements
Apogee altitude
35,969.041 km
Perigee altitude
35,944.199 km
Semi-major axis
42,334.757 km
Eccentricity
0.00029
Inclination
13.4293°
RAAN
339.384°
Arg. of periapsis
258.5821°
True anomaly
Unknown
Mean anomaly
87.9248°
Eccentric anomaly
Unknown
Mean motion
0.24917 °/min
Orbital period
1,444.79 mins
BSTAR
0
Loading historical data...
19687 neighbors
Loading maneuver chart data...
Loading SW <> Apogee altitude chart data...
Loading historical data...
Loading historical data...
Loading historical data...
Loading historical data...
Loading historical data...
Loading historical data...
Loading historical data...

SKYNET 4B Visibility forecast

Observer location: undefined°, undefined°

Span
Click to sort rows by Start time (UTC) header in descending order
Start Az.
Max El. time (UTC)
Max El. Az.
Max El.
End time (UTC)
End Az.
1440 mins2025-07-06 00:59:25.754Z240.55° WSW2025-07-06 20:15:25.754Z251.649° W28.634°2025-07-07 00:59:25.754Z242.651° WSW
|